Regional Weather Roundup
Issued by NWS

Home | Current Version | Previous Version | Graphics & Text | Print | Product List | Glossary On
Versions: 1 2 3 4 5 6 7 8 9 10 11 12 13 14 15 16 17 18 19 20 21 22 23 24 25 26 27 28 29 30 31 32 33 34 35 36 37 38 39 40 41 42 43 44 45 46 47 48 49 50
779
ASUS43 KLSX 180607
RWRMO

WEATHER SUMMARY FOR MISSOURI
NATIONAL WEATHER SERVICE SPRINGFIELD MO
1200 AM CST SAT NOV 18 2017

NOTE: "FAIR" INDICATES FEW OR NO CLOUDS BELOW 12,000 FEET WITH NO
       SIGNIFICANT WEATHER AND/OR OBSTRUCTIONS TO VISIBILITY.
       CURRENT SKY AND/OR WEATHER CONDITIONS ARE NOT AVAILABLE FOR
       CHILLICOTHE AND FARMINGTON.

MOZ001>031-035>038-043-044-053-054-180700-
...NORTHERN AND WESTERN MISSOURI...

CITY           SKY/WX    TMP DP  RH WIND       PRES   REMARKS
KANSAS CTY INT LGT RAIN  60  58  92 E3        29.41F FOG
6HR MIN TEMP:  57; 6HR MAX TEMP:  61; 6HR PCP: TRACE;

KANSAS C DTWN  CLOUDY    62  57  83 E5        29.39F
6HR MIN TEMP:  58; 6HR MAX TEMP:  68;

LEE`S SUMMIT   CLOUDY    60  60 100 E5        29.40F
6HR MIN TEMP:  59; 6HR MAX TEMP:  65;

ST JOSEPH      CLOUDY    55  54  96 N7        29.44S FOG
6HR MIN TEMP:  49; 6HR MAX TEMP:  59;

CHILLICOTHE      N/A     51  51 100 NW3       29.46F
6HR MIN TEMP:  51; 6HR MAX TEMP:  59;

KIRKSVILLE     CLEAR     52  52 100 NE6       29.47F FOG
6HR MIN TEMP:  52; 6HR MAX TEMP:  58;


$$
MOZ066>068-077>081-088>096-101>105-180700-
...SOUTHWEST MISSOURI...

CITY           SKY/WX    TMP DP  RH WIND       PRES   REMARKS
SPRINGFIELD    CLOUDY    66  62  87 S15       29.52F
6HR MIN TEMP:  64; 6HR MAX TEMP:  67;

JOPLIN         PTCLDY    72  64  76 S25G38    29.47F
6HR MIN TEMP:  70; 6HR MAX TEMP:  72;

BRANSON        PTCLDY    68  61  77 S14G30    29.57F

$$
MOZ032>034-039>042-045>050-055>058-069>072-180700-
...CENTRAL MISSOURI...

CITY           SKY/WX    TMP DP  RH WIND       PRES   REMARKS
COLUMBIA       PTCLDY    66  61  84 S13G23    29.48F
6HR MIN TEMP:  61; 6HR MAX TEMP:  66;

JEFFERSON CITY PTCLDY    67  60  78 S7        29.48F
6HR MIN TEMP:  63; 6HR MAX TEMP:  69;

ROLLA          PTCLDY    65  60  84 S14       29.54F
6HR MIN TEMP:  60; 6HR MAX TEMP:  66; 6HR PCP: TRACE;

SEDALIA        CLOUDY    65  62  90 S16       29.46F
6HR MIN TEMP:  64; 6HR MAX TEMP:  66;

WHITEMAN AFB   PTCLDY    64  60  88 S14       29.39F
WARRENSBURG    MOCLDY    61  59  94 SE6       29.42F
OSAGE BEACH    PTCLDY    65  60  84 S7        29.51F

$$
MOZ051-052-059>065-180700-
...EAST CENTRAL MISSOURI...

CITY           SKY/WX    TMP DP  RH WIND       PRES   REMARKS
ST LOUIS INTL  MOCLDY    60  56  86 S14       29.55F
6HR MIN TEMP:  55; 6HR MAX TEMP:  60;

SPIRIT OF STL  CLOUDY    64  59  83 VRB3      29.54F
6HR MIN TEMP:  57; 6HR MAX TEMP:  64;

ST CHARLES     CLOUDY    58  54  86 SE5       29.54F
6HR MIN TEMP:  55; 6HR MAX TEMP:  59;


$$
MOZ072>076-082>087-097>100-106>115-180700-
...SOUTH CENTRAL AND SOUTHEAST MISSOURI...

CITY           SKY/WX    TMP DP  RH WIND       PRES   REMARKS
CAPE GIRARDEAU CLOUDY    64  55  72 S20G29    29.67F
6HR MIN TEMP:  60; 6HR MAX TEMP:  64;

FARMINGTON     CLOUDY    66  60  81 S17       29.60F
6HR MIN TEMP:  56; 6HR MAX TEMP:  66;

POPLAR BLUFF   CLOUDY    66  58  75 S10       29.65F
6HR MIN TEMP:  66; 6HR MAX TEMP:  68;

WEST PLAINS    MOCLDY    66  61  84 S9        29.63F
6HR MIN TEMP:  62; 6HR MAX TEMP:  67;


$$



USA.gov is the U.S. government's official web portal to all federal, state and local government web resources and services.